Regional Weather Roundup
Issued by NWS

Home | Current Version | Previous Version | Graphics & Text | Print | Product List | Glossary On
Versions: 1 2 3 4 5 6 7 8 9 10 11 12 13 14 15 16 17 18 19 20 21 22 23 24 25 26 27 28 29 30 31 32 33 34 35 36 37 38 39 40 41 42 43 44 45 46 47 48 49 50
000
ASUS43 KLMK 241610
RWRKY
KENTUCKY REGIONAL WEATHER ROUNDUP
NATIONAL WEATHER SERVICE LOUISVILLE KY
1200 PM EDT THU JUL 24 2014

NOTE "FAIR" INDICATES FEW OR NO CLOUDS BELOW 12,000 FEET
WITH NO SIGNIFICANT WEATHER AND/OR OBSTRUCTIONS TO VISIBILITY.

KYZ001>023-026-027-061>063-070>075-241700-
WESTERN AND SOUTH CENTRAL KENTUCKY

CITY           SKY/WX    TMP DP  RH WIND       PRES   REMARKS
PADUCAH        SUNNY     75  62  64 NE8       30.07S
HENDERSON      SUNNY     73  59  60 N9        30.07S
OWENSBORO      MOSUNNY   76  59  55 NE12      30.07R
HOPKINSVILLE   PTSUNNY   75  64  68 N6        30.05F HAZE
BOWLING GREEN  PTSUNNY   76  66  71 VRB3      30.03F
GLASGOW        CLOUDY    74  64  72 N7        30.03S
$$

KYZ024-025-028>034-038-045-046-053-241700-
NORTH CENTRAL KENTUCKY

CITY           SKY/WX    TMP DP  RH WIND       PRES   REMARKS
LOUISVILLE/SDF MOSUNNY   77  54  44 N16G25    30.05S
LOUISVILLE/LOU SUNNY     75  54  47 N9G20     30.06R
FORT KNOX      MOSUNNY   74  56  53 N16       30.05R
$$

KYZ035>037-039>044-047>052-055>060-089>105-241700-
NORTHEAST KENTUCKY

CITY           SKY/WX    TMP DP  RH WIND       PRES   REMARKS
LEXINGTON      CLOUDY    69  59  70 N15       30.05R
COVINGTON      MOSUNNY   70  56  61 N9        30.07S
FRANKFORT      MOSUNNY   71  57  61 NE9       30.05R
$$

KYZ054-064>069-076>088-106>120-241700-
SOUTHEAST KENTUCKY

CITY           SKY/WX    TMP DP  RH WIND       PRES   REMARKS
JACKSON        CLOUDY    67  65  93 CALM      30.01R FOG
LONDON         HVY RAIN  71  67  87 NW10      30.01R VSB 1
SOMERSET       CLOUDY    68  68 100 N7        30.03R
MIDDLESBORO    PTSUNNY   80  69  68 W5        29.99S
MONTICELLO     PTSUNNY   71  70  97 N10       30.03R FOG
$$




USA.gov is the U.S. government's official web portal to all federal, state and local government web resources and services.